Hourly Data Report for November 27, 2017

All times are specified in Local Standard Time (LST). Add 1 hour to adjust for Daylight Saving Time where and when it is observed.

GIMLI CLIMATE
MANITOBA

50°38'00.000" N
97°03'00.000" W
230.10 m
5031042
71748
PGH

Download Data

Hourly Data (November 2017)
Hourly Data Report for November 27, 2017
Temp Definition
°C
Dew Point Temp Definition
°C
Rel Hum Definition
%
Wind Dir Definition
10's deg

Wind Spd Definition
km/h
Visibility Definition
km
Stn Press Definition
kPa
Hmdx Definition


Wind Chill Definition


Weather Definition


TIME
00:00 -7.4 -10.3 80 11 17   98.55   -14 LegendNANA
01:00 -7.1 -9.8 81 11 17   98.42   -14 LegendNANA
02:00 -6.2 -8.9 81 12 21   98.26   -13 LegendNANA
03:00 -5.7 -8.4 81 13 17   98.17   -12 LegendNANA
04:00 -5.0 -7.6 82 12 17   97.97   -11 LegendNANA
05:00 -4.2 -6.9 81 12 23   97.71   -11 LegendNANA
06:00 -3.1 -6.0 81 14 26   97.46   -10 LegendNANA
07:00 -2.5 -5.4 81 14 23   97.32   -9 LegendNANA
08:00 -2.1 -5.0 80 14 21   97.16   -8 LegendNANA
09:00 -1.7 -4.6 80 14 19   97.04   -7 LegendNANA
10:00 -1.2 -4.4 79 15 20   96.88   -7 LegendNANA
11:00 -0.1 -3.8 76 15 24   96.70   -6 LegendNANA
12:00 1.6 -2.7 73 15 17   96.52     LegendNANA
13:00 2.9 -1.6 73 20 15   96.44     LegendNANA
14:00 3.2 -0.6 76 17 19   96.34     LegendNANA
15:00 2.6 -0.3 81 20 22   96.34     LegendNANA
16:00 2.3 -0.7 81 18 9   96.33     LegendNANA
17:00 2.0 0.0 87 21 14   96.39     LegendNANA
18:00 2.3 0.2 87 23 13   96.49     LegendNANA
19:00 3.0 -0.2 79 26 11   96.51     LegendNANA
20:00 3.1 -0.2 79 26 15   96.56     LegendNANA
21:00 3.6 -0.8 73 26 24   96.61     LegendNANA
22:00 3.4 -2.1 67 26 25   96.71     LegendNANA
23:00 2.0 -2.9 70 25 17   96.72     LegendNANA

Notes on Data Quality.

Legend

  • E = Estimated
  • M = Missing
  • NA = Not Available
  • ‡ = Partner data that is not subject to review by the National Climate Archives
Date modified: